Time,TemperatureF,DewpointF,PressureIn,WindDirection,WindDirectionDegrees,WindSpeedMPH,WindSpeedGustMPH,Humidity,HourlyPrecipIn,Conditions,Clouds,dailyrainin,SoftwareType,DateUTC
2013-07-28 00:03:00,-999.0,-99.9,26.40,North,-999,-999.0,-999.0,-999,0.00,,,0.02,weatherlink.com 1.10,2013-07-28 04:03:00,
2013-07-28 00:18:00,-999.0,-99.9,26.40,North,-999,-999.0,-999.0,-999,0.00,,,0.02,weatherlink.com 1.10,2013-07-28 04:18:00,
2013-07-28 00:33:00,-999.0,-99.9,26.39,North,-999,-999.0,-999.0,-999,0.00,,,0.02,weatherlink.com 1.10,2013-07-28 04:33:00,
2013-07-28 00:48:00,-999.0,-99.9,26.39,North,-999,-999.0,-999.0,-999,0.00,,,0.02,weatherlink.com 1.10,2013-07-28 04:48:00,
2013-07-28 01:03:00,-999.0,-99.9,26.39,North,-999,-999.0,-999.0,-999,0.00,,,0.02,weatherlink.com 1.10,2013-07-28 05:03:00,
2013-07-28 01:18:00,-999.0,-99.9,26.38,North,-999,-999.0,-999.0,-999,0.00,,,0.02,weatherlink.com 1.10,2013-07-28 05:18:00,
2013-07-28 01:33:00,-999.0,-99.9,26.38,North,-999,-999.0,-999.0,-999,0.00,,,0.02,weatherlink.com 1.10,2013-07-28 05:33:00,
2013-07-28 01:48:00,-999.0,-99.9,26.38,North,-999,-999.0,-999.0,-999,0.00,,,0.02,weatherlink.com 1.10,2013-07-28 05:48:00,
2013-07-28 02:03:00,-999.0,-99.9,26.38,North,-999,-999.0,-999.0,-999,0.00,,,0.00,weatherlink.com 1.10,2013-07-28 06:03:00,
2013-07-28 02:18:00,-999.0,-99.9,26.37,North,-999,-999.0,-999.0,-999,0.00,,,0.00,weatherlink.com 1.10,2013-07-28 06:18:00,
2013-07-28 02:33:00,-999.0,-99.9,26.37,North,-999,-999.0,-999.0,-999,0.00,,,0.00,weatherlink.com 1.10,2013-07-28 06:33:00,
2013-07-28 02:48:00,-999.0,-99.9,26.37,North,-999,-999.0,-999.0,-999,0.00,,,0.00,weatherlink.com 1.10,2013-07-28 06:48:00,
2013-07-28 03:03:00,-999.0,-99.9,26.37,North,-999,-999.0,-999.0,-999,0.00,,,0.00,weatherlink.com 1.10,2013-07-28 07:03:00,
2013-07-28 03:19:00,-999.0,-99.9,26.37,North,-999,-999.0,-999.0,-999,0.00,,,0.00,weatherlink.com 1.10,2013-07-28 07:19:00,
2013-07-28 03:34:00,-999.0,-99.9,26.37,North,-999,-999.0,-999.0,-999,0.00,,,0.00,weatherlink.com 1.10,2013-07-28 07:34:00,
2013-07-28 03:49:00,-999.0,-99.9,26.37,North,-999,-999.0,-999.0,-999,0.00,,,0.00,weatherlink.com 1.10,2013-07-28 07:49:00,
2013-07-28 04:04:00,-999.0,-99.9,26.37,North,-999,-999.0,-999.0,-999,0.00,,,0.00,weatherlink.com 1.10,2013-07-28 08:04:00,
2013-07-28 04:19:00,-999.0,-99.9,26.38,North,-999,-999.0,-999.0,-999,0.00,,,0.00,weatherlink.com 1.10,2013-07-28 08:19:00,
2013-07-28 04:34:00,-999.0,-99.9,26.37,North,-999,-999.0,-999.0,-999,0.00,,,0.00,weatherlink.com 1.10,2013-07-28 08:34:00,
2013-07-28 04:49:00,-999.0,-99.9,26.37,North,-999,-999.0,-999.0,-999,0.00,,,0.00,weatherlink.com 1.10,2013-07-28 08:49:00,
2013-07-28 05:04:00,-999.0,-99.9,26.36,North,-999,-999.0,-999.0,-999,0.00,,,0.00,weatherlink.com 1.10,2013-07-28 09:04:00,
2013-07-28 05:19:00,-999.0,-99.9,26.37,North,-999,-999.0,-999.0,-999,0.00,,,0.00,weatherlink.com 1.10,2013-07-28 09:19:00,
2013-07-28 05:34:00,-999.0,-99.9,26.37,North,-999,-999.0,-999.0,-999,0.00,,,0.00,weatherlink.com 1.10,2013-07-28 09:34:00,
2013-07-28 05:49:00,-999.0,-99.9,26.37,North,-999,-999.0,-999.0,-999,0.00,,,0.00,weatherlink.com 1.10,2013-07-28 09:49:00,
2013-07-28 06:04:00,-999.0,-99.9,26.38,North,-999,-999.0,-999.0,-999,0.00,,,0.00,weatherlink.com 1.10,2013-07-28 10:04:00,
2013-07-28 06:19:00,-999.0,-99.9,26.38,North,-999,-999.0,-999.0,-999,0.00,,,0.00,weatherlink.com 1.10,2013-07-28 10:19:00,
2013-07-28 06:35:00,-999.0,-99.9,26.39,North,-999,-999.0,-999.0,-999,0.00,,,0.00,weatherlink.com 1.10,2013-07-28 10:35:00,
2013-07-28 06:50:00,-999.0,-99.9,26.39,North,-999,-999.0,-999.0,-999,0.00,,,0.00,weatherlink.com 1.10,2013-07-28 10:50:00,
2013-07-28 07:05:00,-999.0,-99.9,26.39,North,-999,-999.0,-999.0,-999,0.00,,,0.00,weatherlink.com 1.10,2013-07-28 11:05:00,
2013-07-28 07:20:00,-999.0,-99.9,26.39,North,-999,-999.0,-999.0,-999,0.00,,,0.00,weatherlink.com 1.10,2013-07-28 11:20:00,
2013-07-28 07:35:00,-999.0,-99.9,26.40,North,-999,-999.0,-999.0,-999,0.00,,,0.00,weatherlink.com 1.10,2013-07-28 11:35:00,
2013-07-28 07:50:00,-999.0,-99.9,26.40,North,-999,-999.0,-999.0,-999,0.00,,,0.00,weatherlink.com 1.10,2013-07-28 11:50:00,
2013-07-28 08:05:00,-999.0,-99.9,26.41,North,-999,-999.0,-999.0,-999,0.00,,,0.00,weatherlink.com 1.10,2013-07-28 12:05:00,
2013-07-28 08:20:00,61.3,61.0,26.41,SE,131,0.0,1.0,98,0.00,,,0.00,weatherlink.com 1.10,2013-07-28 12:20:00,
2013-07-28 08:35:00,61.6,61.0,26.41,SE,131,2.0,3.0,98,0.00,,,0.00,weatherlink.com 1.10,2013-07-28 12:35:00,
2013-07-28 08:50:00,61.8,61.0,26.41,SE,131,1.0,4.0,97,0.00,,,0.00,weatherlink.com 1.10,2013-07-28 12:50:00,
2013-07-28 09:05:00,62.1,61.0,26.41,ESE,115,0.0,3.0,97,0.00,,,0.00,weatherlink.com 1.10,2013-07-28 13:05:00,
2013-07-28 09:20:00,62.4,62.0,26.42,ESE,115,0.0,1.0,97,0.01,,,0.01,weatherlink.com 1.10,2013-07-28 13:20:00,
2013-07-28 09:35:00,62.1,61.0,26.42,ESE,115,4.0,4.0,97,0.02,,,0.02,weatherlink.com 1.10,2013-07-28 13:35:00,
2013-07-28 09:50:00,62.1,61.0,26.42,ESE,113,3.0,4.0,96,0.02,,,0.02,weatherlink.com 1.10,2013-07-28 13:50:00,
2013-07-28 10:05:00,62.4,61.0,26.42,ESE,113,3.0,4.0,96,0.02,,,0.02,weatherlink.com 1.10,2013-07-28 14:05:00,
2013-07-28 10:20:00,63.1,61.0,26.42,ESE,113,0.0,3.0,94,0.01,,,0.02,weatherlink.com 1.10,2013-07-28 14:20:00,
2013-07-28 10:35:00,63.9,62.0,26.42,NE,34,3.0,8.0,92,0.00,,,0.02,weatherlink.com 1.10,2013-07-28 14:35:00,
2013-07-28 10:50:00,64.0,60.0,26.42,North,355,2.0,7.0,88,0.00,,,0.02,weatherlink.com 1.10,2013-07-28 14:50:00,
2013-07-28 11:05:00,64.2,60.0,26.42,North,355,3.0,11.0,85,0.00,,,0.02,weatherlink.com 1.10,2013-07-28 15:05:00,
2013-07-28 11:20:00,64.8,60.0,26.42,North,355,0.0,1.0,85,0.00,,,0.02,weatherlink.com 1.10,2013-07-28 15:20:00,
2013-07-28 11:35:00,65.3,61.0,26.43,North,355,0.0,2.0,86,0.00,,,0.02,weatherlink.com 1.10,2013-07-28 15:35:00,
2013-07-28 11:50:00,66.6,60.0,26.43,SSW,209,1.0,9.0,79,0.00,,,0.02,weatherlink.com 1.10,2013-07-28 15:50:00,
2013-07-28 12:05:00,68.1,61.0,26.43,SSW,207,0.0,15.0,77,0.00,,,0.02,weatherlink.com 1.10,2013-07-28 16:05:00,
2013-07-28 12:20:00,69.1,59.0,26.43,WNW,285,5.0,14.0,71,0.00,,,0.02,weatherlink.com 1.10,2013-07-28 16:20:00,
2013-07-28 12:36:00,69.3,59.0,26.43,SW,230,3.0,9.0,70,0.00,,,0.02,weatherlink.com 1.10,2013-07-28 16:36:00,
2013-07-28 12:51:00,69.4,60.0,26.43,South,178,3.0,12.0,71,0.00,,,0.02,weatherlink.com 1.10,2013-07-28 16:51:00,
2013-07-28 13:06:00,70.3,60.0,26.43,WSW,241,1.0,9.0,69,0.00,,,0.02,weatherlink.com 1.10,2013-07-28 17:06:00,
2013-07-28 13:21:00,70.6,57.0,26.43,WSW,244,0.0,11.0,63,0.00,,,0.02,weatherlink.com 1.10,2013-07-28 17:21:00,
2013-07-28 13:36:00,71.5,59.0,26.43,WSW,240,2.0,11.0,66,0.00,,,0.02,weatherlink.com 1.10,2013-07-28 17:36:00,
2013-07-28 13:51:00,71.8,58.0,26.43,WSW,246,4.0,9.0,62,0.00,,,0.02,weatherlink.com 1.10,2013-07-28 17:51:00,
2013-07-28 14:06:00,71.5,58.0,26.43,WNW,295,0.0,12.0,62,0.00,,,0.02,weatherlink.com 1.10,2013-07-28 18:06:00,
2013-07-28 14:21:00,72.7,60.0,26.42,WSW,251,2.0,9.0,64,0.00,,,0.02,weatherlink.com 1.10,2013-07-28 18:21:00,
2013-07-28 14:36:00,72.7,57.0,26.42,WSW,242,2.0,15.0,59,0.00,,,0.02,weatherlink.com 1.10,2013-07-28 18:36:00,
2013-07-28 14:51:00,71.5,56.0,26.41,WSW,251,3.0,9.0,59,0.00,,,0.02,weatherlink.com 1.10,2013-07-28 18:51:00,
2013-07-28 15:06:00,71.6,56.0,26.41,West,265,2.0,13.0,58,0.00,,,0.02,weatherlink.com 1.10,2013-07-28 19:06:00,
2013-07-28 15:21:00,72.5,60.0,26.41,WSW,252,5.0,9.0,64,0.00,,,0.02,weatherlink.com 1.10,2013-07-28 19:21:00,
2013-07-28 15:36:00,73.0,57.0,26.41,NNW,340,5.0,9.0,57,0.00,,,0.02,weatherlink.com 1.10,2013-07-28 19:36:00,
2013-07-28 15:51:00,72.1,57.0,26.41,WSW,248,2.0,9.0,60,0.00,,,0.02,weatherlink.com 1.10,2013-07-28 19:51:00,
2013-07-28 16:06:00,72.8,58.0,26.40,SSW,200,2.0,7.0,60,0.00,,,0.02,weatherlink.com 1.10,2013-07-28 20:06:00,
2013-07-28 16:21:00,72.1,59.0,26.41,ENE,76,5.0,11.0,63,0.00,,,0.02,weatherlink.com 1.10,2013-07-28 20:21:00,
2013-07-28 16:36:00,72.7,59.0,26.41,West,273,6.0,11.0,62,0.00,,,0.02,weatherlink.com 1.10,2013-07-28 20:36:00,
2013-07-28 16:51:00,71.6,59.0,26.41,NNW,342,5.0,6.0,65,0.00,,,0.02,weatherlink.com 1.10,2013-07-28 20:51:00,
2013-07-28 17:06:00,70.8,59.0,26.41,NW,309,8.0,12.0,67,0.00,,,0.02,weatherlink.com 1.10,2013-07-28 21:06:00,
2013-07-28 17:21:00,70.9,59.0,26.41,NNW,333,3.0,10.0,67,0.00,,,0.02,weatherlink.com 1.10,2013-07-28 21:21:00,
2013-07-28 17:36:00,70.3,59.0,26.41,NNW,341,3.0,8.0,68,0.00,,,0.02,weatherlink.com 1.10,2013-07-28 21:36:00,
2013-07-28 17:51:00,70.3,59.0,26.42,NNW,334,8.0,8.0,67,0.00,,,0.02,weatherlink.com 1.10,2013-07-28 21:51:00,
2013-07-28 18:06:00,69.9,59.0,26.41,NW,310,0.0,8.0,69,0.00,,,0.02,weatherlink.com 1.10,2013-07-28 22:06:00,
2013-07-28 18:36:00,69.6,59.0,26.42,NW,313,4.0,12.0,69,0.00,,,0.02,weatherlink.com 1.10,2013-07-28 22:36:00,
2013-07-28 18:51:00,68.6,58.0,26.42,NNW,333,5.0,7.0,69,0.00,,,0.02,weatherlink.com 1.10,2013-07-28 22:51:00,
2013-07-28 19:21:00,68.4,57.0,26.43,NNW,340,4.0,10.0,68,0.00,,,0.02,weatherlink.com 1.10,2013-07-28 23:21:00,
2013-07-28 20:06:00,67.3,58.0,26.43,NW,325,5.0,7.0,72,0.00,,,0.02,weatherlink.com 1.10,2013-07-29 00:06:00,
2013-07-28 20:21:00,66.8,59.0,26.44,NW,325,0.0,7.0,76,0.00,,,0.02,weatherlink.com 1.10,2013-07-29 00:21:00,
2013-07-28 20:36:00,-999.0,-99.9,26.44,North,-999,-999.0,-999.0,-999,0.00,,,0.02,weatherlink.com 1.10,2013-07-29 00:36:00,
2013-07-28 20:51:00,-999.0,-99.9,26.45,North,-999,-999.0,-999.0,-999,0.00,,,0.02,weatherlink.com 1.10,2013-07-29 00:51:00,
2013-07-28 21:06:00,-999.0,-99.9,26.45,North,-999,-999.0,-999.0,-999,0.00,,,0.02,weatherlink.com 1.10,2013-07-29 01:06:00,
2013-07-28 21:36:00,-999.0,-99.9,26.46,North,-999,-999.0,-999.0,-999,0.00,,,0.02,weatherlink.com 1.10,2013-07-29 01:36:00,
2013-07-28 21:51:00,-999.0,-99.9,26.46,North,-999,-999.0,-999.0,-999,0.00,,,0.02,weatherlink.com 1.10,2013-07-29 01:51:00,
2013-07-28 22:07:00,-999.0,-99.9,26.47,North,-999,-999.0,-999.0,-999,0.00,,,0.02,weatherlink.com 1.10,2013-07-29 02:07:00,
2013-07-28 22:22:00,-999.0,-99.9,26.48,North,-999,-999.0,-999.0,-999,0.00,,,0.02,weatherlink.com 1.10,2013-07-29 02:22:00,
2013-07-28 22:37:00,-999.0,-99.9,26.48,North,-999,-999.0,-999.0,-999,0.00,,,0.02,weatherlink.com 1.10,2013-07-29 02:37:00,
2013-07-28 22:52:00,-999.0,-99.9,26.48,North,-999,-999.0,-999.0,-999,0.00,,,0.02,weatherlink.com 1.10,2013-07-29 02:52:00,
2013-07-28 23:07:00,-999.0,-99.9,26.47,North,-999,-999.0,-999.0,-999,0.00,,,0.02,weatherlink.com 1.10,2013-07-29 03:07:00,
2013-07-28 23:22:00,-999.0,-99.9,26.47,North,-999,-999.0,-999.0,-999,0.00,,,0.02,weatherlink.com 1.10,2013-07-29 03:22:00,
2013-07-28 23:37:00,-999.0,-99.9,26.48,North,-999,-999.0,-999.0,-999,0.00,,,0.02,weatherlink.com 1.10,2013-07-29 03:37:00,